FW1562 Weather Reports


time (UTC)temp
C
wind
direction
speed
KPH
gust
KPH
rain 1hr
cm
rain 24hr
cm
rain mn
cm
humidity
%
barometer
mb
20260509185701 30 255 0.0 0.0 0.00 0.13 0.13 75 1013.2
20260509185433 30 285 0.0 0.0 0.00 0.13 0.13 75 1013.2
20260509184701 30 258 0.0 0.0 0.00 0.13 0.13 79 1013.3
20260509184204 30 213 0.0 0.0 0.00 0.13 0.13 77 1013.3
20260509183702 30 182 0.0 0.0 0.00 0.13 0.13 77 1013.4
20260509183202 29 240 0.0 0.0 0.00 0.13 0.13 78 1013.4
20260509182702 29 240 0.0 0.0 0.00 0.13 0.13 81 1013.4
20260509182159 28 263 0.0 0.0 0.00 0.13 0.13 79 1013.4
20260509181701 29 285 0.0 0.0 0.00 0.13 0.13 77 1013.5
20260509181159 30 196 0.0 0.0 0.00 0.13 0.13 77 1013.4
20260509180705 28 146 0.0 0.0 0.00 0.13 0.13 79 1013.4
20260509180659 29 199 0.0 0.0 0.00 0.13 0.13 80 1013.5
20260509175657 28 205 0.0 1.6 0.00 0.13 0.13 82 1013.5
20260509175159 28 219 0.0 1.6 0.00 0.13 0.13 82 1013.6
20260509174659 28 172 0.0 0.0 0.00 0.13 0.13 82 1013.6
20260509174158 28 182 0.0 0.0 0.00 0.13 0.13 83 1013.6
20260509173658 27 186 0.0 0.0 0.00 0.13 0.13 83 1014.0
20260509173156 27 182 0.0 0.0 0.00 0.13 0.13 82 1014.2
20260509172655 27 182 0.0 0.0 0.00 0.13 0.13 85 1014.3
20260509172155 27 259 0.0 3.2 0.00 0.13 0.13 86 1014.1
20260509171701 26 161 0.0 0.0 0.13 0.13 0.13 88 1014.2
20260509171656 27 281 0.0 3.2 0.00 0.13 0.13 87 1014.3
20260509170656 26 161 0.0 0.0 0.13 0.13 0.13 88 1014.4
20260509170156 26 162 0.0 0.0 0.13 0.13 0.13 89 1014.4
20260509165927 26 234 0.0 0.0 0.13 0.13 0.13 90 1014.5
20260509165155 26 211 0.0 0.0 0.13 0.13 0.13 92 1014.5
20260509164656 25 270 0.0 0.0 0.13 0.13 0.13 92 1014.5
20260509164153 25 270 0.0 0.0 0.13 0.13 0.13 92 1014.6
20260509163654 25 270 0.0 0.0 0.13 0.13 0.13 92 1014.6
20260509163153 25 270 0.0 0.0 0.13 0.13 0.13 92 1014.6
20260509162924 25 270 0.0 0.0 0.13 0.13 0.13 93 1014.5
20260509162153 25 280 0.0 0.0 0.13 0.13 0.13 94 1014.4
20260509161926 25 280 0.0 0.0 0.13 0.13 0.13 94 1014.5
20260509161426 25 278 0.0 0.0 0.00 0.00 0.00 94 1014.5
20260509160918 25 279 0.0 0.0 0.00 0.00 0.00 95 1014.4
20260509160406 25 279 0.0 0.0 0.00 0.00 0.00 96 1014.5
20260509155620 24 172 0.0 0.0 0.00 0.00 0.00 96 1014.5
20260509155108 24 269 0.0 0.0 0.00 0.00 0.00 96 1014.7
20260509154558 24 266 0.0 0.0 0.00 0.00 0.00 97 1014.8
20260509154050 24 230 0.0 0.0 0.00 0.00 0.00 97 1014.8
20260509153530 24 230 0.0 0.0 0.00 0.00 0.00 98 1014.9
20260509153027 24 222 0.0 1.6 0.00 0.00 0.00 98 1014.8
20260509152514 23 221 0.0 1.6 0.00 0.00 0.00 98 1014.8
20260509152011 23 255 0.0 0.0 0.00 0.00 0.00 98 1014.8
20260509151508 23 177 0.0 0.0 0.00 0.00 0.00 99 1014.7
20260509150957 23 177 0.0 0.0 0.00 0.00 0.00 99 1014.6
20260509150452 23 178 0.0 1.6 0.00 0.00 0.00 99 1014.4
20260509145940 23 175 0.0 1.6 0.00 0.00 0.00 98 1014.3
20260509145418 23 175 0.0 0.0 0.00 0.00 0.00 98 1014.1
20260509144915 23 173 0.0 0.0 0.00 0.00 0.00 98 1013.9
20260509144415 23 173 0.0 0.0 0.00 0.00 0.00 99 1013.9
20260509144132 23 173 0.0 0.0 0.00 0.00 0.00 99 1014.0
20260509143351 23 173 0.0 0.0 0.00 0.00 0.00 98 1013.8
20260509142848 23 175 0.0 0.0 0.00 0.00 0.00 98 1014.1
20260509142826 23 175 0.0 0.0 0.00 0.00 0.00 99 1014.1
20260509142428 23 175 0.0 0.0 0.00 0.00 0.00 99 1014.0
20260509141317 23 175 0.0 0.0 0.00 0.00 0.00 99 1014.0
20260509140815 23 175 0.0 0.0 0.00 0.00 0.00 99 1014.1
20260509140316 23 175 0.0 0.0 0.00 0.00 0.00 99 1014.0
20260509140047 23 175 0.0 0.0 0.00 0.00 0.00 99 1014.0
20260509135314 23 180 0.0 1.6 0.00 0.00 0.00 99 1013.9
20260509134816 23 174 0.0 1.6 0.00 0.00 0.00 99 1013.8
20260509134316 23 173 0.0 1.6 0.00 0.00 0.00 99 1013.5
20260509133813 23 170 0.0 1.6 0.00 0.00 0.00 99 1013.5
20260509133318 22 169 0.0 1.6 0.00 0.00 0.00 99 1013.4
20260509133313 22 169 0.0 1.6 0.00 0.00 0.00 99 1013.6
20260509132935 22 169 0.0 1.6 0.00 0.00 0.00 99 1013.3
20260509131810 22 171 0.0 1.6 0.00 0.00 0.00 99 1013.0
20260509131309 22 172 0.0 1.6 0.00 0.00 0.00 99 1012.9
20260509130811 22 175 0.0 1.6 0.00 0.00 0.00 99 1013.0
20260509130309 22 171 0.0 1.6 0.00 0.00 0.00 99 1013.0
20260509125811 22 167 0.0 1.6 0.00 0.00 0.00 99 1012.8
20260509125308 22 169 0.0 0.0 0.00 0.00 0.00 99 1012.8
20260509124810 22 170 0.0 0.0 0.00 0.00 0.00 99 1013.0
20260509124307 22 170 0.0 0.0 0.00 0.00 0.00 99 1012.8
20260509123806 22 183 0.0 0.0 0.00 0.00 0.00 99 1012.8
20260509123308 22 183 0.0 0.0 0.00 0.00 0.00 99 1012.9
20260509122807 22 183 0.0 0.0 0.00 0.00 0.00 99 1013.1
20260509122307 22 183 0.0 0.0 0.00 0.00 0.00 99 1013.3
20260509121812 22 183 0.0 0.0 0.00 0.00 0.00 99 1013.4
20260509121807 22 183 0.0 0.0 0.00 0.00 0.00 99 1013.3
20260509121039 22 183 0.0 0.0 0.00 0.03 0.00 99 1014.0
20260509120311 22 183 0.0 0.0 0.00 0.23 0.00 99 1014.2
20260509120307 22 183 0.0 0.0 0.00 0.18 0.00 99 1014.1
20260509115308 22 183 0.0 0.0 0.00 0.25 0.00 99 1014.3
20260509114806 22 183 0.0 0.0 0.00 0.28 0.00 99 1014.3
20260509114306 22 183 0.0 0.0 0.00 0.28 0.00 99 1014.0
20260509113806 22 183 0.0 0.0 0.00 0.28 0.00 99 1013.9
20260509113535 22 183 0.0 0.0 0.00 0.28 0.00 99 1014.0
20260509112804 22 183 0.0 0.0 0.00 0.28 0.00 99 1013.9
20260509112306 22 183 0.0 0.0 0.00 0.28 0.00 99 1013.8
20260509112030 22 183 0.0 0.0 0.00 0.28 0.00 99 1013.6
20260509111258 22 183 0.0 0.0 0.00 0.30 0.00 99 1013.4
20260509110800 22 183 0.0 0.0 0.00 0.30 0.00 99 1013.4
20260509110304 22 183 0.0 0.0 0.00 0.33 0.00 98 1013.3
20260509110259 22 183 0.0 0.0 0.00 0.33 0.00 98 1013.8
20260509105301 22 183 0.0 0.0 0.00 0.33 0.00 98 1013.2
20260509105257 22 183 0.0 0.0 0.00 0.33 0.00 98 1013.3
20260509104254 22 183 0.0 0.0 0.00 0.36 0.00 98 1013.2
20260509104026 22 183 0.0 0.0 0.00 0.36 0.00 98 1013.4
20260509103252 22 184 0.0 0.0 0.00 0.36 0.00 98 1013.5
20260509102752 22 183 0.0 0.0 0.00 0.36 0.00 98 1013.4
20260509102253 22 183 0.0 0.0 0.00 0.36 0.00 98 1013.6
20260509101751 22 184 0.0 0.0 0.00 0.36 0.00 98 1013.5
20260509101257 22 183 0.0 0.0 0.00 0.36 0.00 98 1013.6
20260509101252 22 183 0.0 0.0 0.00 0.36 0.00 98 1013.4
20260509100248 22 184 0.0 0.0 0.00 0.36 0.00 98 1013.6
20260509095750 22 184 0.0 0.0 0.00 0.36 0.00 98 1013.6
20260509095249 22 184 0.0 0.0 0.00 0.36 0.00 98 1013.6
20260509094748 22 184 0.0 0.0 0.00 0.36 0.00 98 1013.5
20260509094250 22 184 0.0 0.0 0.00 0.36 0.00 98 1013.6
20260509093750 22 184 0.0 0.0 0.00 0.36 0.00 98 1013.8
20260509093254 22 184 0.0 0.0 0.00 0.36 0.00 98 1013.4
20260509093249 22 184 0.0 0.0 0.00 0.36 0.00 98 1013.8
20260509092520 22 184 0.0 0.0 0.00 0.36 0.00 98 1013.3
20260509091748 22 184 0.0 0.0 0.00 0.36 0.00 98 1013.4
20260509091248 22 184 0.0 0.0 0.00 0.36 0.00 98 1013.6
20260509090750 22 184 0.0 0.0 0.00 0.36 0.00 98 1013.5
20260509090249 22 184 0.0 0.0 0.00 0.36 0.00 98 1013.5
20260509085748 22 184 0.0 0.0 0.00 0.36 0.00 98 1013.5
20260509085249 22 184 0.0 0.0 0.00 0.36 0.00 98 1013.5
20260509084748 22 184 0.0 0.0 0.00 0.36 0.00 98 1013.4
20260509084250 22 184 0.0 0.0 0.00 0.36 0.00 97 1013.6
20260509083749 22 184 0.0 0.0 0.00 0.36 0.00 97 1013.8
20260509083250 22 184 0.0 0.0 0.00 0.36 0.00 97 1014.0
20260509082748 22 184 0.0 0.0 0.00 0.36 0.00 97 1014.0
20260509082250 22 184 0.0 0.0 0.00 0.36 0.00 97 1014.1
20260509082020 22 184 0.0 0.0 0.00 0.36 0.00 97 1013.9
20260509081248 22 184 0.0 0.0 0.00 0.36 0.00 97 1014.1
20260509080750 22 184 0.0 0.0 0.00 0.36 0.00 97 1014.0
20260509080246 22 184 0.0 0.0 0.00 0.36 0.00 97 1013.9
20260509075744 22 184 0.0 0.0 0.00 0.36 0.00 97 1014.0
20260509075245 22 184 0.0 0.0 0.00 0.36 0.00 97 1014.0
20260509074742 22 184 0.0 0.0 0.00 0.36 0.00 97 1014.1
20260509074240 22 184 0.0 0.0 0.00 0.36 0.00 97 1014.4
20260509073740 22 184 0.0 0.0 0.00 0.36 0.00 97 1014.4
20260509073237 22 182 0.0 0.0 0.00 0.36 0.00 97 1014.3
20260509072738 22 182 0.0 0.0 0.00 0.36 0.00 97 1014.2
20260509072237 22 181 0.0 0.0 0.00 0.36 0.00 97 1014.2
20260509071736 22 165 0.0 0.0 0.00 0.36 0.00 96 1014.1
20260509071238 22 183 0.0 1.6 0.00 0.36 0.00 96 1014.0
20260509070736 22 178 0.0 1.6 0.00 0.36 0.00 96 1014.0
20260509070237 22 194 0.0 1.6 0.00 0.36 0.00 96 1013.9
20260509065726 22 183 0.0 0.0 0.00 0.36 0.00 96 1013.6
20260509065226 22 169 0.0 0.0 0.00 0.36 0.00 96 1013.6
20260509064728 22 165 0.0 0.0 0.00 0.36 0.00 96 1013.5
20260509064227 22 155 0.0 0.0 0.00 0.36 0.00 96 1013.5
20260509063727 22 153 0.0 0.0 0.00 0.36 0.00 96 1013.5
20260509063228 22 153 0.0 0.0 0.00 0.36 0.00 96 1013.5
20260509062732 22 153 0.0 0.0 0.00 0.36 0.00 96 1013.6
20260509062728 22 153 0.0 0.0 0.00 0.36 0.00 96 1013.6
20260509061726 22 153 0.0 0.0 0.00 0.36 0.00 96 1013.6
20260509061225 22 153 0.0 0.0 0.00 0.36 0.00 96 1013.8
20260509060722 22 153 0.0 0.0 0.00 0.36 0.00 96 1013.8
20260509060222 22 153 0.0 0.0 0.00 0.36 0.00 96 1013.9
20260509055722 22 153 0.0 0.0 0.00 0.36 0.00 96 1013.6
20260509055223 22 152 0.0 0.0 0.00 0.36 0.00 95 1013.8
20260509054722 22 152 0.0 0.0 0.00 0.36 0.00 95 1013.9
20260509054222 22 152 0.0 0.0 0.00 0.36 0.00 95 1014.0
20260509053722 22 152 0.0 0.0 0.00 0.36 0.00 95 1013.8
20260509053222 22 153 0.0 0.0 0.00 0.36 0.00 95 1013.6
20260509052723 22 154 0.0 0.0 0.00 0.36 0.00 95 1013.5
20260509052221 22 154 0.0 0.0 0.00 0.36 0.00 95 1013.6
20260509051717 22 154 0.0 0.0 0.00 0.36 0.00 95 1013.6
20260509051217 22 154 0.0 0.0 0.00 0.36 0.00 95 1013.6
20260509050949 22 154 0.0 0.0 0.00 0.36 0.00 95 1013.5
20260509050448 22 154 0.0 0.0 0.00 0.36 0.00 95 1013.6
20260509045716 22 154 0.0 0.0 0.00 0.36 0.36 95 1013.5
20260509045222 22 154 0.0 0.0 0.00 0.36 0.36 95 1013.5
20260509045216 22 154 0.0 0.0 0.00 0.36 0.36 95 1013.5
20260509044450 22 154 0.0 0.0 0.00 0.36 0.36 95 1013.4
20260509043716 22 154 0.0 0.0 0.00 0.36 0.36 95 1013.4
20260509043449 22 154 0.0 0.0 0.00 0.36 0.36 95 1013.3
20260509042716 22 154 0.0 1.6 0.00 0.36 0.36 95 1013.2
20260509042216 22 154 0.0 1.6 0.00 0.36 0.36 94 1013.3
20260509041717 22 136 0.0 1.6 0.00 0.36 0.36 94 1013.2
20260509041218 22 140 0.0 1.6 0.00 0.36 0.36 94 1013.2
20260509040717 22 148 0.0 0.0 0.00 0.36 0.36 94 1013.1
20260509040216 22 140 0.0 0.0 0.00 0.36 0.36 94 1013.1
20260509035716 22 153 0.0 0.0 0.00 0.36 0.36 94 1013.2
20260509035215 22 154 0.0 0.0 0.00 0.36 0.36 94 1013.3
20260509034716 22 155 0.0 0.0 0.00 0.36 0.36 94 1013.4
20260509034213 22 155 0.0 0.0 0.00 0.36 0.36 94 1013.3
20260509033710 22 155 0.0 0.0 0.00 0.36 0.36 94 1013.2
20260509033210 22 155 0.0 0.0 0.00 0.36 0.36 94 1013.3
20260509032711 22 155 0.0 0.0 0.00 0.36 0.36 93 1013.3
20260509032210 22 155 0.0 0.0 0.00 0.36 0.36 93 1013.2
20260509031710 22 154 0.0 0.0 0.00 0.36 0.36 93 1013.1
20260509031210 22 154 0.0 0.0 0.00 0.36 0.36 93 1013.2
20260509030711 22 142 0.0 1.6 0.00 0.36 0.36 93 1013.1
20260509030442 22 145 0.0 1.6 0.00 0.36 0.36 92 1013.0
20260509025712 22 169 0.0 0.0 0.00 0.36 0.36 92 1012.9
20260509025212 22 170 0.0 0.0 0.00 0.36 0.36 92 1012.6
20260509024708 22 163 0.0 0.0 0.00 0.36 0.36 92 1012.7
20260509024209 22 151 0.0 0.0 0.00 0.36 0.36 93 1012.5
20260509023938 22 150 0.0 0.0 0.00 0.36 0.36 93 1012.5
20260509023209 22 128 0.0 0.0 0.00 0.36 0.36 93 1012.6
20260509022709 22 150 0.0 1.6 0.00 0.36 0.36 93 1012.7
20260509022208 22 142 0.0 1.6 0.00 0.36 0.36 93 1012.7
20260509021708 22 137 0.0 0.0 0.00 0.36 0.36 93 1012.5
20260509021441 22 146 0.0 0.0 0.00 0.36 0.36 93 1012.5
20260509020709 22 146 0.0 0.0 0.00 0.36 0.36 93 1012.4
20260509020209 22 146 0.0 0.0 0.00 0.36 0.36 93 1012.3
20260509015706 22 144 0.0 0.0 0.00 0.36 0.36 93 1012.3
20260509015205 22 139 0.0 0.0 0.00 0.36 0.36 92 1012.3
20260509014706 22 138 0.0 0.0 0.00 0.36 0.36 92 1012.2
20260509014436 23 138 0.0 0.0 0.00 0.36 0.36 92 1012.1
20260509013938 23 137 0.0 0.0 0.00 0.36 0.36 92 1012.1
20260509013207 23 135 0.0 0.0 0.00 0.36 0.36 91 1012.0
20260509012707 23 135 0.0 0.0 0.00 0.36 0.36 90 1012.0
20260509012206 23 135 0.0 0.0 0.00 0.36 0.36 90 1012.0
20260509011707 23 135 0.0 0.0 0.00 0.36 0.36 90 1011.9
20260509011205 23 135 0.0 0.0 0.00 0.36 0.36 90 1012.1
20260509010704 23 135 0.0 0.0 0.00 0.36 0.36 90 1012.0
20260509010204 23 135 0.0 0.0 0.00 0.36 0.36 89 1011.8
20260509005705 23 135 0.0 0.0 0.00 0.36 0.36 89 1011.9
20260509005205 23 133 0.0 0.0 0.00 0.36 0.36 89 1011.9
20260509004705 24 130 0.0 0.0 0.00 0.36 0.36 89 1012.0
20260509004203 24 86 0.0 0.0 0.00 0.36 0.36 89 1012.0
20260509003934 24 86 0.0 0.0 0.00 0.36 0.36 89 1012.1
20260509003204 24 86 0.0 0.0 0.00 0.36 0.36 88 1012.1
20260509002936 24 86 0.0 0.0 0.00 0.36 0.36 88 1012.0
20260509002825 24 89 0.0 0.0 0.00 0.36 0.36 87 1012.1
20260509001701 24 89 0.0 0.0 0.00 0.36 0.36 87 1012.1
20260509001201 25 90 0.0 0.0 0.00 0.36 0.36 87 1012.1
20260509000931 25 105 0.0 0.0 0.00 0.36 0.36 86 1012.1
20260509000433 25 136 0.0 0.0 0.00 0.36 0.36 86 1011.9
20260508235700 25 107 0.0 0.0 0.00 0.36 0.36 86 1011.9
20260508235200 25 86 0.0 0.0 0.00 0.36 0.36 86 1012.0
20260508234701 25 88 0.0 0.0 0.00 0.36 0.36 87 1012.0
20260508234159 25 86 0.0 0.0 0.00 0.36 0.36 86 1012.0
20260508233659 25 111 0.0 0.0 0.00 0.36 0.36 86 1012.0
20260508233159 25 111 0.0 0.0 0.00 0.36 0.36 87 1012.1
20260508232655 25 100 0.0 0.0 0.00 0.36 0.36 86 1012.4
20260508232426 25 100 0.0 1.6 0.00 0.36 0.36 86 1012.6
20260508231656 25 100 0.0 1.6 0.00 0.36 0.36 86 1012.8
20260508231158 25 102 0.0 0.0 0.00 0.36 0.36 85 1012.9
20260508230928 25 103 0.0 0.0 0.00 0.36 0.36 85 1012.8
20260508230155 25 103 0.0 0.0 0.00 0.36 0.36 85 1012.8
20260508225655 25 108 0.0 0.0 0.00 0.36 0.36 84 1012.8
20260508225154 25 113 0.0 0.0 0.00 0.36 0.36 84 1012.7
20260508224659 26 127 0.0 0.0 0.00 0.36 0.36 83 1012.8
20260508224655 25 117 0.0 0.0 0.00 0.36 0.36 83 1012.9
20260508223649 26 123 0.0 0.0 0.00 0.36 0.36 83 1012.7
20260508223151 26 118 0.0 0.0 0.00 0.36 0.36 83 1012.7
20260508222648 26 101 0.0 0.0 0.00 0.36 0.36 83 1012.6
20260508222147 26 102 0.0 0.0 0.00 0.36 0.36 83 1012.6
20260508221647 26 95 0.0 0.0 0.00 0.36 0.36 84 1012.7
20260508221146 25 140 0.0 0.0 0.00 0.36 0.36 83 1012.8
20260508220647 26 120 0.0 0.0 0.00 0.36 0.36 83 1012.9
20260508220148 26 128 0.0 0.0 0.00 0.36 0.36 82 1012.8
20260508215646 26 100 0.0 0.0 0.00 0.36 0.36 82 1012.8
20260508215418 26 100 0.0 0.0 0.00 0.36 0.36 82 1012.8
20260508214647 26 94 0.0 0.0 0.00 0.36 0.36 83 1012.6
20260508214147 26 98 0.0 0.0 0.00 0.36 0.36 83 1012.6
20260508213645 26 98 0.0 0.0 0.00 0.36 0.36 83 1012.7
20260508213419 26 116 0.0 0.0 0.00 0.36 0.36 82 1012.7
20260508212649 26 55 0.0 0.0 0.00 0.36 0.36 82 1013.0
20260508212644 26 138 0.0 0.0 0.00 0.36 0.36 82 1012.9
20260508211642 26 59 0.0 0.0 0.00 0.36 0.36 82 1013.0
20260508211143 26 59 0.0 0.0 0.00 0.36 0.36 82 1013.1
20260508210912 26 59 0.0 0.0 0.00 0.36 0.36 82 1013.1
20260508210143 26 63 0.0 0.0 0.00 0.36 0.36 83 1013.1
20260508205914 26 48 0.0 0.0 0.00 0.36 0.36 83 1013.1
20260508205142 26 51 0.0 0.0 0.00 0.36 0.36 83 1013.2
20260508204642 26 52 0.0 0.0 0.00 0.36 0.36 81 1013.4
20260508204141 26 27 0.0 0.0 0.00 0.36 0.36 83 1013.5
20260508203913 26 22 0.0 0.0 0.00 0.36 0.36 84 1013.5
20260508203142 26 105 0.0 0.0 0.00 0.36 0.36 85 1013.5
20260508202649 26 117 0.0 0.0 0.00 0.36 0.36 83 1013.5
20260508202643 26 120 0.0 0.0 0.00 0.36 0.36 83 1013.5
20260508201643 26 78 0.0 0.0 0.00 0.36 0.36 84 1013.6
20260508201142 26 91 0.0 0.0 0.00 0.36 0.36 84 1013.9
20260508200643 26 93 0.0 0.0 0.00 0.36 0.36 82 1013.9
20260508200141 26 86 0.0 0.0 0.00 0.36 0.36 83 1013.9
20260508195641 26 59 0.0 0.0 0.00 0.36 0.36 84 1013.9
20260508195141 25 44 0.0 1.6 0.00 0.36 0.36 85 1013.9
20260508194643 25 107 0.0 1.6 0.00 0.36 0.36 85 1014.2
20260508194142 25 35 0.0 0.0 0.00 0.36 0.36 85 1014.3
20260508193914 25 40 0.0 0.0 0.00 0.36 0.36 85 1014.4
20260508193141 24 46 0.0 0.0 0.00 0.36 0.36 87 1014.3
20260508192643 24 46 0.0 0.0 0.00 0.36 0.36 85 1014.5
20260508192142 24 47 0.0 0.0 0.00 0.36 0.36 86 1014.6
20260508191643 24 59 0.0 0.0 0.00 0.36 0.36 85 1014.6
20260508191412 24 59 0.0 0.0 0.00 0.36 0.36 86 1014.7
20260508190641 24 60 0.0 0.0 0.00 0.36 0.36 86 1014.9
20260508190413 24 60 0.0 0.0 0.00 0.36 0.36 86 1015.0